Simultaneous Nadir Overpasses (SNOs) Predictions

Prediction of SNOs between GOES-16 and NOAA-21 Satellite Orbit:

Table of predicted SNOs for the next 14.0 days since TLE Epoch: 12/1/2023
Index Date Time (GOES-16) GOES-16 Lat,Lon NOAA-21 Lat,Lon Distance(km) Time Diff (sec)
1 12/03/2023 06:22:22 0.01, -75.21 -0.03, -75.10 13.23 80
2 12/05/2023 18:25:35 -0.00, -75.24 -0.13, -75.88 72.05 80
3 12/06/2023 18:09:30 -0.01, -75.25 0.87, -71.34 445.67 80
4 12/08/2023 06:31:19 0.00, -75.27 0.30, -76.61 153.68 80
5 12/09/2023 06:09:54 0.01, -75.28 -0.70, -72.08 364.10 80
6 12/10/2023 18:31:50 -0.01, -75.30 -0.49, -77.38 237.48 80
7 12/11/2023 18:15:46 -0.01, -75.32 0.53, -72.85 280.61 80
8 12/13/2023 06:37:34 0.01, -75.34 0.64, -78.13 318.05 80
9 12/14/2023 06:16:10 0.01, -75.35 -0.39, -73.60 199.77 80
10 12/15/2023 18:38:06 -0.00, -75.37 -0.78, -78.90 401.92 80
